Home   Weather   Panipat   Past weeks

Flag for India Past Weather in Panipat, Haryana, India — Yesterday and Last 2 Weeks

66 °F


Feels Like: 66 °F
Forecast: 63 / 87 °F
Wind: No wind

Location: New Delhi Palam Airport

Current Time: Oct 29, 2016 at 5:14:34 AM

Latest Report: Oct 29, 2016 at 4:30 AM

Visibility: 0 mi

Pressure: 29.89 "Hg

Humidity: 68%

Dew Point: 55 °F

Location of PanipatLocation

Past Weather in Panipat — Graph


Panipat Temperature Yesterday

Maximum temperature yesterday: 90 °F (at 2:30 PM)
Minimum temperature yesterday: 61 °F (at 6:30 AM)
Average temperature yesterday: 76 °F

High & Low Weather Summary for the Past Weeks

High95 °F (Oct 14, 1:30 PM)83% (Oct 28, 6:30 AM)30.04 "Hg (Oct 28, 6:30 AM)
Low61 °F (Oct 28, 6:30 AM)19% (Oct 17, 4:00 PM)29.71 "Hg (Oct 20, 3:30 PM)
Average80 °F45%29.85 "Hg
* Reported Oct 14 4:00 AM — Oct 29 4:00 AM, Panipat, Weather by CustomWeather, © 2016

Note: Actual official high and low records may vary slightly from our data, if they occured in-between our weather recording intervals... More about our weather records


Panipat Weather History for the Previous 24 Hours

Scroll right to see more
Time TempWeatherWind HumidityBarometerVisibility
4:00 AM
Sat, Oct 29
66 °FClear.No wind68%29.89 "Hg1 mi
3:30 AM66 °FClear.No wind68%29.89 "Hg1 mi
3:00 AM68 °FClear.No wind64%29.89 "Hg1 mi
2:30 AM68 °FClear.No wind60%29.89 "Hg1 mi
1:30 AM70 °FClear.No wind57%29.89 "Hg1 mi
1:00 AM70 °FClear.No wind57%29.89 "Hg1 mi
12:30 AM70 °FClear.No wind57%29.92 "Hg1 mi
12:00 AM70 °FClear.No wind57%29.92 "Hg1 mi
11:30 PM
Fri, Oct 28
72 °FClear.No wind53%29.92 "Hg1 mi
11:00 PM72 °FClear.No wind53%29.92 "Hg1 mi
10:30 PM72 °FClear.No wind53%29.92 "Hg1 mi
10:00 PM73 °FClear.No wind50%29.92 "Hg1 mi
9:30 PM73 °FClear.No wind50%29.92 "Hg1 mi
9:00 PM77 °FClear.No wind44%29.92 "Hg1 mi
8:30 PM77 °FClear.No wind44%29.92 "Hg1 mi
8:00 PM79 °FClear.No wind39%29.89 "Hg1 mi
7:30 PM79 °FClear.No wind37%29.89 "Hg1 mi
7:00 PM81 °FClear.No wind32%29.89 "Hg1 mi
6:30 PM82 °FClear.No wind30%29.86 "Hg1 mi
6:00 PM84 °FClear.3 mph27%29.86 "Hg1 mi
5:30 PM86 °FClear.6 mph27%29.86 "Hg1 mi
5:00 PM86 °FClear.6 mph27%29.86 "Hg1 mi
4:30 PM88 °FClear.8 mph24%29.86 "Hg1 mi
4:00 PM90 °FClear.10 mph22%29.86 "Hg1 mi
3:30 PM90 °FClear.10 mph22%29.86 "Hg1 mi
3:00 PM90 °FClear.9 mph22%29.86 "Hg1 mi
2:30 PM90 °FClear.9 mph22%29.89 "Hg1 mi
2:00 PM88 °FClear.9 mph25%29.92 "Hg1 mi
1:30 PM88 °FClear.8 mph27%29.92 "Hg1 mi
1:00 PM88 °FClear.8 mph29%29.92 "Hg1 mi
12:30 PM86 °FClear.8 mph31%29.95 "Hg1 mi
11:30 AM82 °FClear.6 mph40%29.98 "Hg1 mi
11:00 AM81 °FClear.6 mph42%29.98 "Hg1 mi
10:30 AM77 °FClear.6 mph47%29.98 "Hg1 mi
10:00 AM75 °FClear.5 mph47%29.98 "Hg1 mi
9:30 AM73 °FClear.5 mph50%29.98 "Hg1 mi
8:30 AM70 °FFog.3 mph60%29.98 "Hg1 mi
8:00 AM66 °FFog.3 mph68%29.95 "Hg1 mi
7:30 AM61 °FFog.3 mph83%29.95 "Hg1 mi
7:00 AM61 °FFog.3 mph83%29.95 "Hg1 mi
6:30 AM61 °FFog.3 mph83%29.92 "Hg1 mi
6:00 AM64 °FClear.3 mph78%29.92 "Hg1 mi
5:30 AM68 °FClear.No wind64%29.92 "Hg1 mi
5:00 AM68 °FClear.No wind64%29.92 "Hg1 mi
Weather by CustomWeather, © 2016

See weather overviewHow to use our weather pages